Ana Sayfa
METAR-TAF:

METAR-TAF

Havaalanları :

Odessa-Schlemeyer Field

Odessa, Teksas, Amerika Birleşik Devletleri

Enlem: 31-55-17N, Boylam: 102-23-30W, yükseklik: 914 m

Güncel hava durumu gözlemi

Rapor saat 23:53 UTC de 51 dakika önce yapıldı.
Rüzgar batıdan 8 kt
Sıcaklık 17°C
Nem 12%
Basınç 1023 hPa
Görüş mesafesi: 16.1 km
Açık gökyüzü

METAR: KODO 272353Z AUTO 26008KT 10SM CLR 17/M13 A3020 RMK AO2 SLP215 T01721128 10183 20122 56004

Saat: 18:44 (00:44 UTC)


TAF: eksik

4.000'den fazla havaalanı için hava durumu gözlemleri ve tahminleri (METAR ve TAF raporları).

Kullanılabilir istasyonlar harita üzerinde sarı ve kırmızı noktalarla gösterilir.

İstasyonun adını görmek için fareyi noktanın üzerinde gezdirin.

Sonrasında hava gözlem ve tahminlerini görmek için tıklayın.

Haritayı değiştirmek için: yaklaştırmak için siyah artı işaretli yeşil düğmeye ve uzaklaştırmak için de eksi işaretli düğmeye hızla tıklayın; bitişik haritalar için yeşil okları kullanın.


METAR-TAF: